Lid_Strength_Index
7 6 5 6 6 5 6 7 7 7 8 8 8 8 8 8 8 8 9 7 8 10 9 8 8 10 9 9 11 9 10 9 10 13 13 13 14 12 13 12 13 15 15 16 16 17 19 8 9 13 10 8 7 7
7 7 6 6 5 5 6 7 7 7 8 8 8 8 8 7 7 7 10 7 7 9 10 7 7 7 7 7 8 7 9 9 9 11 11 11 13 12 13 16 9 15 12 14 14 14 8 7 8 7 7 8 7 8
7 7 7 6 6 6 7 7 8 8 8 8 8 8 8 8 7 7 8 8 8 10 10 9 9 6 4 4 4 8 8 6 8 6 8 10 13 11 15 14 12 10 8 12 12 9 9 8 7 6 6 7 7 7
7 7 7 6 6 6 7 8 8 8 8 8 8 8 8 8 7 7 9 8 9 10 13 11 6 7 5 5 3 3 5 4 5 5 8 10 12 8 12 11 11 9 9 11 11 9 8 8 7 6 7 6 7 7
7 7 7 6 6 7 8 8 8 8 8 8 8 8 8 7 7 7 8 8 7 10 12 11 8 6 5 4 3 3 4 5 7 8 9 10 8 9 9 9 11 9 10 12 13 8 8 8 6 6 6 8 8 9
7 7 6 6 6 7 8 8 8 8 8 8 8 8 7 7 7 9 11 6 5 6 10 14 8 8 6 4 3 4 4 5 6 8 9 8 7 8 12 13 8 7 6 7 8 6 7 6 5 5 8 8 8 8
7 7 6 6 7 8 8 8 8 8 8 8 8 8 7 7 8 11 10 7 6 6 10 12 11 7 4 4 4 5 4 6 6 7 8 8 9 8 10 12 8 7 6 6 5 6 7 6 8 7 8 7 8 8
7 6 6 6 8 8 9 9 9 8 8 8 8 8 8 7 7 9 7 5 5 7 8 13 11 9 3 7 8 5 7 6 7 7 7 9 8 8 12 9 7 6 6 6 5 6 6 7 7 8 7 9 9 9
7 6 6 7 8 9 9 9 8 8 8 8 8 7 8 8 9 6 4 3 4 7 11 11 13 13 4 6 6 6 6 10 7 9 9 8 10 12 9 8 7 7 6 6 5 6 6 8 8 9 9 9 10 9
7 6 6 8 8 9 9 9 8 8 8 8 8 9 10 7 4 4 6 8 9 8 9 12 8 10 7 8 8 8 8 10 12 9 7 10 11 7 7 6 6 6 5 6 8 8 8 9 9 10 10 10 9 9
6 6 7 8 8 9 9 8 8 8 8 9 12 12 10 5 8 9 10 11 10 12 10 9 8 9 5 9 9 7 10 10 14 11 11 12 12 9 6 6 5 4 5 5 6 6 8 9 9 9 10 10 9 10
6 6 7 8 9 9 9 9 9 10 11 11 11 9 8 9 10 12 11 9 10 11 8 8 8 8 6 5 8 8 11 10 13 8 12 13 10 7 6 6 5 5 4 6 6 7 8 9 9 9 10 10 9 9
6 7 7 8 8 9 8 8 9 9 9 9 11 11 11 11 15 14 14 12 11 7 7 7 8 8 6 6 8 10 12 13 8 12 13 11 8 6 6 5 5 4 4 5 6 6 7 9 8 9 9 10 10 11
7 7 8 8 8 8 9 9 9 9 10 11 11 17 13 13 11 10 10 10 9 7 7 6 7 8 7 9 9 12 10 10 14 15 14 10 8 6 5 5 5 5 4 5 5 6 7 9 9 9 9 10 11 12
7 8 8 8 8 8 8 8 9 9 10 12 11 16 12 10 10 9 9 10 8 7 7 7 6 7 9 10 9 10 12 14 13 14 10 8 7 6 5 5 5 5 4 5 5 6 6 8 9 9 10 11 11 12
8 8 9 8 8 8 8 9 9 8 10 11 11 13 11 11 11 10 10 10 7 8 6 6 8 10 11 10 12 13 13 14 13 10 8 7 6 6 5 5 4 4 4 5 5 5 5 7 9 10 10 11 11 12
8 10 7 7 8 9 9 10 9 11 12 12 12 10 10 9 10 10 8 8 6 7 8 8 11 12 9 12 12 11 13 12 10 9 6 6 6 5 5 4 4 4 4 4 5 5 4 5 7 9 10 11 11 12
10 7 7 7 8 8 8 9 10 11 13 11 12 10 8 8 8 8 7 5 5 6 6 8 7 10 12 13 13 11 10 9 8 8 7 6 5 4 4 4 4 4 4 4 4 4 5 5 6 8 9 10 11 11
8 8 7 8 9 9 10 10 9 12 11 9 8 8 8 7 5 5 5 4 3 4 5 7 9 11 11 9 10 10 9 9 10 8 6 6 6 5 4 4 4 4 4 4 4 5 5 5 6 6 7 9 10 11
8 8 8 9 9 10 11 10 7 10 11 9 8 8 7 7 6 6 5 4 5 6 8 10 10 9 9 8 7 7 8 9 9 9 9 8 7 6 6 4 4 4 4 4 4 5 6 6 6 6 7 8 9 11
9 8 8 9 10 9 9 10 10 9 9 9 8 7 7 6 7 7 7 5 7 8 9 8 8 7 6 6 6 7 8 9 9 9 9 10 8 7 6 5 4 3 4 4 4 4 5 6 6 7 7 7 7 7
8 7 8 9 10 9 10 8 9 8 9 8 8 7 7 7 7 7 6 7 8 7 6 7 7 6 7 7 7 7 7 8 8 8 8 9 9 9 8 6 7 5 4 4 4 4 4 4 5 6 7 7 7 7
8 8 9 9 12 12 13 8 10 9 10 9 7 9 8 7 6 5 8 6 6 5 6 6 6 6 6 6 6 6 6 7 9 9 8 9 9 10 9 8 7 8 8 7 4 3 3 7 6 5 6 7 7 8
8 10 11 12 12 14 10 11 8 8 8 9 9 10 8 7 5 7 9 8 7 6 7 7 7 8 7 7 8 8 7 7 7 8 8 9 10 10 9 9 8 8 9 8 6 4 3 3 6 5 6 6 7 7
13 14 13 14 11 12 12 11 10 10 11 9 10 9 7 6 9 9 9 8 8 7 7 7 7 7 8 7 7 7 7 7 8 8 8 8 9 9 10 9 8 8 8 9 8 7 5 3 3 3 5 5 6 6
16 14 14 14 12 12 11 12 11 11 10 10 9 7 6 8 10 10 9 8 7 7 7 7 7 7 7 7 8 8 8 7 7 8 7 7 8 9 10 10 10 9 7 7 7 7 6 5 3 3 3 5 9 6
16 15 12 9 9 9 9 8 8 8 10 10 8 7 8 11 11 9 7 6 7 6 5 5 6 6 6 6 6 6 6 6 7 7 5 6 6 7 8 9 10 8 7 7 7 7 7 7 6 4 3 3 5 5
13 12 13 10 9 7 9 8 9 9 8 7 7 9 10 10 10 7 6 5 5 5 5 5 5 5 6 6 5 6 7 7 7 7 7 7 7 7 7 6 6 10 7 8 8 8 8 7 7 6 4 3 4 4
12 10 9 10 9 8 8 8 8 6 5 6 7 8 8 7 6 5 5 5 5 5 6 6 6 5 5 5 5 5 7 8 10 11 11 11 11 10 7 7 7 7 7 8 10 10 9 9 8 7 5 3 2 3
10 7 9 8 9 9 7 5 5 4 4 5 6 7 7 6 5 4 5 5 6 7 6 6 6 6 7 7 7 6 7 8 9 10 12 11 11 9 8 8 8 8 7 8 9 9 10 9 9 7 7 7 6 6
7 7 8 7 8 6 5 3 3 3 4 4 5 7 8 7 6 5 6 6 6 6 7 7 7 6 7 7 7 8 8 8 8 9 9 9 9 9 9 8 8 8 9 9 9 10 10 10 11 11 10 10 9 8
7 8 8 8 7 4 3 5 5 6 5 6 7 7 7 8 9 7 6 6 7 7 8 7 7 7 6 6 6 6 7 7 8 9 9 9 9 9 8 8 7 8 10 10 11 11 11 12 12 12 13 13 11 10
7 6 6 6 7 6 5 6 7 8 7 7 7 7 6 8 10 8 5 5 5 6 6 5 5 5 5 5 5 6 7 7 8 9 9 10 11 10 9 9 8 8 10 11 11 11 12 13 14 14 14 14 14 13